Weather History for Beaufort, SC

Change the Weather History Date:

Tuesday, May 6, 2014

  Actual Average (KNBC) Record (KNBC)
Temperature  
Mean Temperature 80 °F -  
Max Temperature 91 °F 81 °F 94 °F (1938)
Min Temperature 69 °F 58 °F 42 °F (1957)
Cooling Degree Days 15    
Growing Degree Days 30 (Base 50)    
Moisture  
Dew Point 62 °F    
Average Humidity 57    
Maximum Humidity 83    
Minimum Humidity 31    
Precipitation  
Precipitation 0.00 in - - ()
Sea Level Pressure  
Sea Level Pressure 29.96 in    
Wind  
Wind Speed 7 mph (SW)    
Max Wind Speed 15 mph    
Max Gust Speed 21 mph    
Visibility 7 miles    
Events      
Averages and records for this station are not official NWS values.
T = Trace of Precipitation, MM = Missing Value Source: NWS Daily Summary

Daily Weather History Graph

Daily Weather History Graph

Search for Another Location

Airport:

Trip Planner

Search our weather history database for the weather conditions in past years. The results will help you decide how hot, cold, wet, or windy it might be!

Date:

Astronomy

May. 06, 2014 Rise Set
Actual Time 6:31 AM EDT 8:07 PM EDT
Civil Twilight 6:04 AM EDT 8:33 PM EDT
Nautical Twilight 5:33 AM EDT 9:05 PM EDT
Astronomical Twilight 4:59 AM EDT 9:39 PM EDT
Moon 12:42 PM EDT (5/6) 1:28 AM EDT (5/6)
Length of Visible Light 14h 28m
Length of Day
13h 35m
Waxing Crescent, 46% of the Moon is Illuminated
May 6
Waxing Crescent
May 6
First Quarter
May 14
Full
May 21
Last Quarter
May 28
New

Hourly Weather History & Observations

Time (EDT) Temp. Heat Index Dew Point Humidity Pressure Visibility Wind Dir Wind Speed Gust Speed Precip Events Conditions
12:15 AM 69.8 °F - 64.4 °F 83% 29.94 in 7.0 mi SSW 4.6 mph - N/A   Clear
12:35 AM 69.8 °F - 64.4 °F 83% 29.93 in 7.0 mi SSW 5.8 mph - N/A   Clear
12:55 AM 69.8 °F - 64.4 °F 83% 29.94 in 7.0 mi SSW 4.6 mph - N/A   Clear
1:15 AM 71.6 °F - 64.4 °F 78% 29.93 in 7.0 mi SSW 5.8 mph - N/A   Clear
1:35 AM 71.6 °F - 64.4 °F 78% 29.93 in 7.0 mi SSW 4.6 mph - N/A   Clear
1:55 AM 69.8 °F - 64.4 °F 83% 29.93 in 10.0 mi SSW 6.9 mph - N/A   Clear
2:15 AM 71.6 °F - 64.4 °F 78% 29.92 in 7.0 mi SW 5.8 mph - N/A   Clear
2:35 AM 71.6 °F - 62.6 °F 73% 29.92 in 7.0 mi WSW 6.9 mph - N/A   Clear
2:55 AM 71.6 °F - 62.6 °F 73% 29.91 in 7.0 mi SW 5.8 mph - N/A   Clear
3:15 AM 69.8 °F - 62.6 °F 78% 29.91 in 7.0 mi SW 5.8 mph - N/A   Clear
3:35 AM 69.8 °F - 62.6 °F 78% 29.91 in 10.0 mi WSW 5.8 mph - N/A   Clear
7:55 AM 71.6 °F - 60.8 °F 69% 29.98 in 7.0 mi West 8.1 mph - N/A   Clear
8:15 AM 73.4 °F - 60.8 °F 65% 29.99 in 7.0 mi West 8.1 mph - N/A   Clear
8:35 AM 73.4 °F - 60.8 °F 65% 29.99 in 7.0 mi West 9.2 mph - N/A   Clear
8:55 AM 75.2 °F - 60.8 °F 61% 30.00 in 7.0 mi West 11.5 mph - N/A   Clear
9:15 AM 77.0 °F - 62.6 °F 61% 30.00 in 10.0 mi West 6.9 mph - N/A   Clear
10:15 AM 80.6 °F 81.8 °F 62.6 °F 54% 30.00 in 7.0 mi NW 9.2 mph - N/A   Clear
10:35 AM 82.4 °F 83.4 °F 62.6 °F 51% 30.00 in 7.0 mi WNW 8.1 mph - N/A   Clear
10:55 AM 84.2 °F 85.0 °F 62.6 °F 48% 30.00 in 7.0 mi West 8.1 mph - N/A   Clear
11:15 AM 86.0 °F 86.6 °F 62.6 °F 45% 30.00 in 7.0 mi WSW 11.5 mph - N/A   Clear
11:35 AM 86.0 °F 86.1 °F 60.8 °F 43% 30.01 in 7.0 mi West 12.7 mph 18.4 mph N/A   Clear
11:55 AM 87.8 °F 88.5 °F 62.6 °F 43% 30.00 in 7.0 mi WNW 10.4 mph - N/A   Clear
12:15 PM 87.8 °F 88.5 °F 62.6 °F 43% 30.00 in 7.0 mi WSW 10.4 mph 17.3 mph N/A   Clear
12:35 PM 87.8 °F 87.6 °F 60.8 °F 40% 29.99 in 7.0 mi WSW 12.7 mph 18.4 mph N/A   Clear
12:55 PM 87.8 °F 87.6 °F 60.8 °F 40% 29.98 in 7.0 mi West 13.8 mph 18.4 mph N/A   Clear
1:15 PM 89.6 °F 89.5 °F 60.8 °F 38% 29.98 in 7.0 mi WNW 15.0 mph 20.7 mph N/A   Clear
1:35 PM 89.6 °F 89.5 °F 60.8 °F 38% 29.98 in 7.0 mi WSW 13.8 mph 18.4 mph N/A   Clear
1:55 PM 89.6 °F 89.5 °F 60.8 °F 38% 29.97 in 7.0 mi WNW 11.5 mph 17.3 mph N/A   Clear
2:15 PM 89.6 °F 89.5 °F 60.8 °F 38% 29.97 in 7.0 mi SW 9.2 mph - N/A   Clear
2:35 PM 89.6 °F 89.5 °F 60.8 °F 38% 29.96 in 7.0 mi WSW 8.1 mph 17.3 mph N/A   Clear
2:55 PM 89.6 °F 89.5 °F 60.8 °F 38% 29.96 in 7.0 mi SW 9.2 mph - N/A   Clear
3:15 PM 89.6 °F 89.5 °F 60.8 °F 38% 29.95 in 10.0 mi West 9.2 mph 18.4 mph N/A   Clear
3:35 PM 91.4 °F 91.4 °F 60.8 °F 36% 29.94 in 7.0 mi West 11.5 mph 17.3 mph N/A   Clear
3:55 PM 91.4 °F 91.4 °F 60.8 °F 36% 29.94 in 7.0 mi WSW 9.2 mph - N/A   Clear
4:15 PM 89.6 °F 89.5 °F 60.8 °F 38% 29.93 in 7.0 mi SW 8.1 mph - N/A   Clear
4:35 PM 89.6 °F 88.9 °F 59.0 °F 36% 29.93 in 5.0 mi SSW 6.9 mph - N/A   Haze
4:55 PM 89.6 °F 88.9 °F 59.0 °F 36% 29.93 in 7.0 mi WSW 9.2 mph - N/A   Clear
5:15 PM 89.6 °F 88.9 °F 59.0 °F 36% 29.93 in 7.0 mi SW 8.1 mph - N/A   Clear
5:35 PM 89.6 °F 88.9 °F 59.0 °F 36% 29.93 in 7.0 mi WSW 9.2 mph 17.3 mph N/A   Clear
5:55 PM 89.6 °F 87.7 °F 55.4 °F 31% 29.93 in 7.0 mi WSW 8.1 mph - N/A   Clear
6:15 PM 89.6 °F 88.9 °F 59.0 °F 36% 29.93 in 7.0 mi SSW 9.2 mph - N/A   Clear
6:35 PM 84.2 °F 85.6 °F 64.4 °F 51% 29.93 in 7.0 mi South 6.9 mph - N/A   Clear
6:55 PM 82.4 °F 83.9 °F 64.4 °F 54% 29.93 in 7.0 mi South 6.9 mph - N/A   Clear
7:15 PM 80.6 °F 82.3 °F 64.4 °F 58% 29.93 in 7.0 mi SSW 6.9 mph - N/A   Clear
7:35 PM 80.6 °F 82.3 °F 64.4 °F 58% 29.94 in 7.0 mi SSW 4.6 mph - N/A   Clear
7:55 PM 78.8 °F - 64.4 °F 61% 29.95 in 7.0 mi South 6.9 mph - N/A   Clear
8:15 PM 77.0 °F - 64.4 °F 65% 29.95 in 7.0 mi SSW 5.8 mph - N/A   Clear
8:35 PM 77.0 °F - 64.4 °F 65% 29.96 in 10.0 mi South 6.9 mph - N/A   Clear
8:55 PM 75.2 °F - 62.6 °F 65% 29.96 in 7.0 mi South 4.6 mph - N/A   Clear
9:15 PM 73.4 °F - 62.6 °F 69% 29.97 in 10.0 mi South 3.5 mph - N/A   Clear
9:35 PM 73.4 °F - 62.6 °F 69% 29.98 in 7.0 mi South 4.6 mph - N/A   Clear
9:55 PM 73.4 °F - 62.6 °F 69% 29.98 in 10.0 mi South 3.5 mph - N/A   Clear
10:15 PM 73.4 °F - 62.6 °F 69% 29.99 in 7.0 mi SSW 3.5 mph - N/A   Clear
10:35 PM 73.4 °F - 62.6 °F 69% 29.99 in 7.0 mi SW 4.6 mph - N/A   Clear
10:55 PM 69.8 °F - 62.6 °F 78% 30.00 in 7.0 mi SSW 4.6 mph - N/A   Clear
11:15 PM 71.6 °F - 62.6 °F 73% 30.00 in 7.0 mi SSW 4.6 mph - N/A   Clear
11:35 PM 71.6 °F - 64.4 °F 78% 30.00 in 10.0 mi SSW 4.6 mph - N/A   Clear
11:55 PM 71.6 °F - 64.4 °F 78% 30.00 in 7.0 mi SSW 4.6 mph - N/A   Clear